DW2150 Weather Reports


Display with metric or nautical units.
time (UTC)temp
F
wind
direction
speed
MPH
gust
MPH
rain 1hr
in
rain 24hr
in
rain mn
in
humidity
%
barometer
mb
20260503210553 79 351 2.0 5.0 0.00 0.00 0.00 52 1020.3
20260503210050 79 50 2.0 4.0 0.00 0.00 0.00 49 1020.3
20260503205516 80 315 1.0 7.0 0.00 0.00 0.00 52 1020.3
20260503205013 80 150 1.0 7.0 0.00 0.00 0.00 50 1020.3
20260503204510 80 52 2.0 7.0 0.00 0.00 0.00 53 1020.3
20260503204008 80 15 2.0 6.0 0.00 0.00 0.00 49 1020.3
20260503203505 80 46 2.0 6.0 0.00 0.00 0.00 52 1020.7
20260503203002 80 292 1.0 5.0 0.00 0.00 0.00 48 1020.7
20260503202427 80 303 2.0 6.0 0.00 0.00 0.00 53 1020.7
20260503201925 80 52 1.0 6.0 0.00 0.00 0.00 49 1021.0
20260503201422 80 54 3.0 6.0 0.00 0.00 0.00 45 1021.0
20260503200918 80 73 2.0 7.0 0.00 0.00 0.00 48 1021.0
20260503200415 80 0 1.0 7.0 0.00 0.00 0.00 49 1021.0
20260503195912 80 108 1.0 7.0 0.00 0.00 0.00 46 1021.3
20260503195409 80 62 2.0 5.0 0.00 0.00 0.00 49 1021.3
20260503194905 80 48 2.0 3.0 0.00 0.00 0.00 46 1021.3
20260503194402 80 22 1.0 5.0 0.00 0.00 0.00 46 1021.3
20260503193828 80 331 1.0 5.0 0.00 0.00 0.00 49 1021.3
20260503193223 80 70 1.0 5.0 0.00 0.00 0.00 48 1021.7
20260503192720 80 332 3.0 5.0 0.00 0.00 0.00 46 1021.7
20260503192217 81 65 1.0 3.0 0.00 0.00 0.00 50 1021.7
20260503191714 81 37 1.0 3.0 0.00 0.00 0.00 50 1021.7
20260503191211 81 311 2.0 3.0 0.00 0.00 0.00 47 1021.7
20260503190708 81 237 1.0 6.0 0.00 0.00 0.00 50 1022.0
20260503190205 81 3 2.0 8.0 0.00 0.00 0.00 53 1022.0
20260503185701 81 28 1.0 8.0 0.00 0.00 0.00 50 1022.0
20260503185158 80 40 2.0 8.0 0.00 0.00 0.00 45 1022.0
20260503184655 80 34 3.0 8.0 0.00 0.00 0.00 43 1022.0
20260503184151 81 52 2.0 8.0 0.00 0.00 0.00 45 1022.4
20260503183647 80 48 3.0 6.0 0.00 0.00 0.00 48 1022.4
20260503183144 80 187 2.0 7.0 0.00 0.00 0.00 48 1022.4
20260503182610 80 31 1.0 7.0 0.00 0.00 0.00 45 1022.4
20260503182048 80 55 2.0 7.0 0.00 0.00 0.00 42 1022.4
20260503181545 80 65 2.0 7.0 0.00 0.00 0.00 40 1022.7
20260503181041 80 27 2.0 7.0 0.00 0.00 0.00 44 1022.7
20260503180538 80 17 2.0 8.0 0.00 0.00 0.00 43 1022.7
20260503180013 80 290 1.0 8.0 0.00 0.00 0.00 44 1022.7
20260503175510 80 52 3.0 8.0 0.00 0.00 0.00 40 1022.7
20260503174905 80 47 3.0 8.0 0.00 0.00 0.00 43 1023.0
20260503174402 80 30 3.0 8.0 0.00 0.00 0.00 41 1023.0
20260503173828 80 56 2.0 11.0 0.00 0.00 0.00 45 1023.0
20260503173325 80 19 3.0 11.0 0.00 0.01 0.00 44 1023.4
20260503172822 80 357 2.0 11.0 0.00 0.01 0.00 46 1023.4
20260503172319 80 30 3.0 11.0 0.00 0.01 0.00 46 1023.4
20260503171745 79 32 1.0 6.0 0.00 0.01 0.00 50 1023.4
20260503171241 79 36 2.0 8.0 0.00 0.01 0.00 42 1023.4
20260503170706 79 3 2.0 8.0 0.00 0.01 0.00 46 1023.4
20260503170132 79 121 1.0 8.0 0.00 0.01 0.00 43 1023.4
20260503150749 74 33 2.0 7.0 0.00 0.01 0.00 65 1023.0
20260503150227 73 33 2.0 7.0 0.00 0.01 0.00 56 1023.0
20260503130854 62 294 0.0 0.0 0.00 0.01 0.00 95 1022.4
20260503130351 61 294 0.0 0.0 0.00 0.01 0.00 95 1022.4
20260503110339 56 294 0.0 0.0 0.00 0.01 0.00 92 1021.7
20260503090336 58 294 0.0 0.0 0.00 0.01 0.00 91 1021.3
20260503081202 59 294 0.0 0.0 0.00 0.01 0.00 89 1021.0
20260503080627 59 294 0.0 0.0 0.00 0.01 0.00 89 1021.0
20260503080124 59 294 0.0 0.0 0.00 0.01 0.00 89 1021.0
20260503072428 60 294 0.0 0.0 0.00 0.01 0.00 88 1021.0
20260503071924 60 294 0.0 0.0 0.00 0.01 0.00 87 1021.0
20260503071421 60 294 0.0 0.0 0.00 0.01 0.00 87 1021.0
20260503070900 60 294 0.0 0.0 0.00 0.01 0.00 86 1021.0
20260503070357 60 294 0.0 0.0 0.00 0.01 0.00 87 1021.0
20260503060112 61 294 0.0 0.0 0.00 0.01 0.00 84 1021.3
20260503055037 61 294 0.0 0.0 0.00 0.01 0.00 84 1021.0
20260503054503 61 294 0.0 0.0 0.00 0.01 0.00 84 1021.0
20260503054000 61 294 0.0 0.0 0.00 0.01 0.00 83 1021.0
20260503053458 61 294 0.0 0.0 0.00 0.01 0.00 84 1021.0
20260503052954 61 294 0.0 0.0 0.00 0.01 0.00 83 1021.0
20260503052451 61 294 0.0 0.0 0.00 0.01 0.00 83 1021.0
20260503051948 61 294 0.0 0.0 0.00 0.01 0.01 83 1021.0
20260503051444 61 294 0.0 0.0 0.00 0.01 0.01 82 1021.0
20260503050941 61 294 0.0 0.0 0.00 0.01 0.01 82 1021.0
20260503050438 61 294 0.0 0.0 0.00 0.01 0.01 82 1021.0
20260503045935 61 294 0.0 0.0 0.00 0.01 0.01 83 1020.7
20260503045432 61 294 0.0 0.0 0.00 0.01 0.01 83 1020.7
20260503044929 62 294 0.0 0.0 0.00 0.01 0.01 82 1020.7
20260503044426 62 294 0.0 0.0 0.00 0.01 0.01 82 1020.7
20260503043922 62 294 0.0 0.0 0.00 0.01 0.01 82 1020.7
20260503043420 62 294 0.0 0.0 0.00 0.01 0.01 82 1020.7
20260503042917 62 294 0.0 0.0 0.00 0.01 0.01 82 1020.7
20260503042414 62 294 0.0 0.0 0.00 0.01 0.01 82 1020.7
20260503041910 62 294 0.0 0.0 0.00 0.01 0.01 82 1021.0
20260503041407 62 294 0.0 0.0 0.00 0.01 0.01 82 1020.7
20260503040904 62 294 0.0 0.0 0.00 0.01 0.01 82 1020.7
20260503040401 62 294 0.0 0.0 0.00 0.01 0.01 82 1020.7
20260503035858 62 294 0.0 0.0 0.00 0.02 0.01 81 1020.7
20260503035355 62 294 0.0 0.0 0.00 0.02 0.01 81 1020.7
20260503034852 62 294 0.0 0.0 0.00 0.02 0.01 81 1020.7
20260503034349 63 294 0.0 0.0 0.00 0.02 0.01 81 1020.3
20260503033846 63 294 0.0 0.0 0.00 0.02 0.01 82 1020.3
20260503033311 63 294 0.0 0.0 0.00 0.03 0.01 81 1020.3
20260503032807 63 294 0.0 0.0 0.00 0.03 0.01 81 1020.3
20260503032305 63 294 0.0 0.0 0.00 0.04 0.01 81 1020.3
20260503031711 63 294 0.0 0.0 0.00 0.04 0.01 80 1020.3
20260503031136 63 294 0.0 0.0 0.00 0.05 0.01 79 1020.3
20260503030633 64 294 0.0 0.0 0.00 0.05 0.01 79 1020.3
20260503030129 64 294 0.0 0.0 0.00 0.06 0.01 79 1020.3
20260503025626 64 294 0.0 0.0 0.00 0.07 0.01 78 1020.3
20260503025122 64 294 0.0 0.0 0.00 0.07 0.01 77 1020.3
20260503024619 64 294 0.0 0.0 0.00 0.08 0.01 77 1020.3
20260503024116 64 294 0.0 0.0 0.00 0.08 0.01 77 1020.3
20260503023612 65 294 0.0 0.0 0.00 0.09 0.01 76 1020.3
20260503023109 65 294 0.0 0.0 0.00 0.10 0.01 77 1020.0
20260503022606 65 294 0.0 0.0 0.00 0.10 0.01 77 1020.0
20260503022103 65 294 0.0 0.0 0.00 0.11 0.01 75 1020.0
20260503021559 65 294 0.0 0.0 0.00 0.12 0.01 74 1020.0
20260503021025 66 294 0.0 0.0 0.00 0.13 0.01 73 1020.0
20260503020522 66 294 0.0 0.0 0.00 0.13 0.01 73 1020.0
20260503020019 66 294 0.0 0.0 0.00 0.14 0.01 71 1020.0
20260503015516 66 294 0.0 0.0 0.00 0.15 0.01 71 1019.6
20260503014942 67 294 0.0 0.0 0.00 0.17 0.01 71 1019.6
20260503014439 67 294 0.0 0.0 0.00 0.18 0.01 69 1019.6
20260503013935 67 294 0.0 0.0 0.00 0.19 0.01 69 1019.3
20260503013432 68 294 0.0 0.0 0.00 0.20 0.01 69 1019.3
20260503012929 68 294 0.0 0.0 0.00 0.22 0.01 69 1019.3
20260503012354 69 294 0.0 0.0 0.00 0.23 0.01 69 1019.3
20260503011851 70 294 0.0 0.0 0.00 0.25 0.01 68 1019.3
20260503011316 70 294 0.0 0.0 0.00 0.26 0.01 67 1019.3
20260503010813 71 294 0.0 0.0 0.00 0.27 0.01 67 1019.3
20260503010239 71 294 0.0 0.0 0.00 0.29 0.01 62 1019.0
20260503005735 72 294 0.0 1.0 0.00 0.31 0.01 61 1019.0
20260503005058 72 293 0.0 2.0 0.00 0.32 0.01 62 1019.0
20260503004555 72 293 0.0 2.0 0.00 0.34 0.01 60 1019.0
20260503004052 73 292 1.0 2.0 0.00 0.35 0.01 59 1018.6
20260503003549 73 344 1.0 4.0 0.00 0.37 0.01 58 1018.6
20260503003046 73 343 1.0 4.0 0.00 0.38 0.01 56 1018.6
20260503002543 73 59 1.0 4.0 0.00 0.39 0.01 55 1018.6
20260503002040 74 10 2.0 4.0 0.00 0.41 0.01 54 1018.6
20260503001537 74 34 1.0 4.0 0.00 0.42 0.01 55 1018.6
20260503001033 74 33 0.0 4.0 0.00 0.42 0.01 54 1018.6
20260503000529 75 83 1.0 4.0 0.00 0.43 0.01 53 1018.6
20260503000026 75 89 2.0 5.0 0.00 0.43 0.01 55 1018.6
20260502235523 75 9 1.0 5.0 0.00 0.44 0.01 54 1018.6
20260502235001 75 348 2.0 5.0 0.00 0.44 0.01 54 1018.6
20260502234458 75 357 2.0 9.0 0.00 0.45 0.01 53 1018.6
20260502233955 75 76 2.0 9.0 0.00 0.45 0.01 51 1018.6
20260502233452 75 50 1.0 9.0 0.00 0.46 0.01 52 1018.3
20260502232949 75 61 3.0 9.0 0.00 0.47 0.01 50 1018.3
20260502232445 76 39 2.0 7.0 0.00 0.47 0.01 52 1018.3
20260502231942 76 43 1.0 7.0 0.00 0.47 0.01 52 1018.3
20260502231408 76 14 1.0 7.0 0.00 0.47 0.01 51 1018.3
20260502230846 76 38 3.0 7.0 0.00 0.47 0.01 50 1018.3
20260502230311 76 139 2.0 7.0 0.00 0.47 0.01 53 1018.3
20260502225749 76 85 2.0 7.0 0.00 0.48 0.01 53 1018.3
20260502225246 76 76 2.0 7.0 0.00 0.49 0.01 54 1018.3
20260502224712 76 75 2.0 7.0 0.00 0.50 0.01 52 1017.9
20260502224209 76 57 2.0 7.0 0.00 0.51 0.01 52 1017.9
20260502223706 76 34 2.0 8.0 0.00 0.52 0.01 50 1018.3
20260502223132 76 65 3.0 8.0 0.00 0.53 0.01 51 1018.3
20260502222629 76 49 3.0 8.0 0.00 0.55 0.01 53 1018.3
20260502222126 76 236 2.0 8.0 0.00 0.56 0.01 51 1018.3
20260502221623 76 85 2.0 9.0 0.00 0.58 0.01 52 1018.3
20260502221120 76 82 2.0 9.0 0.00 0.60 0.01 52 1018.3
20260502220617 76 40 3.0 10.0 0.00 0.62 0.01 52 1018.3
20260502220113 76 62 4.0 10.0 0.00 0.64 0.01 51 1018.3
20260502215609 76 44 2.0 9.0 0.00 0.66 0.01 51 1018.3
20260502215105 76 43 2.0 10.0 0.00 0.69 0.01 52 1018.3
20260502214602 76 291 3.0 10.0 0.00 0.71 0.01 51 1018.3
20260502214100 76 36 2.0 10.0 0.00 0.74 0.01 50 1018.3
20260502213556 76 106 2.0 9.0 0.00 0.77 0.01 51 1018.3
20260502213054 77 71 3.0 12.0 0.00 0.80 0.01 51 1018.3
20260502212520 76 332 2.0 12.0 0.00 0.83 0.01 52 1018.3
20260502212016 76 73 3.0 12.0 0.00 0.87 0.01 53 1018.3
20260502211513 76 62 4.0 12.0 0.00 0.90 0.01 51 1018.3